Weather History for Dillon, MT

Change the Weather History Date:

Friday, January 18, 2013

  Actual Average Record
Temperature  
Mean Temperature 30 °F 23 °F  
Max Temperature 39 °F 33 °F 50 °F (2005)
Min Temperature 20 °F 14 °F -29 °F (1943)
Degree Days  
Heating Degree Days 35    
Month to date heating degree days 872  
Since 1 July heating degree days 3930  
Cooling Degree Days 0    
Month to date cooling degree days 0  
Year to date cooling degree days 0  
Moisture  
Dew Point 14 °F    
Average Humidity 54    
Maximum Humidity 68    
Minimum Humidity 40    
Precipitation  
Precipitation 0.00 in 0.00 in 0.13 in (1998)
Month to date precipitation 0.20 0.16  
Year to date precipitation 0.20 0.16  
Snow  
Snow 0.00 in - - ()
Snow Depth 2.00 in    
Sea Level Pressure  
Sea Level Pressure 30.30 in    
Wind  
Wind Speed 19 mph (SSW)    
Max Wind Speed 28 mph    
Max Gust Speed 31 mph    
T = Trace of Precipitation, MM = Missing Value Source: NWS Daily Summary

Daily Weather History Graph

Daily Weather History Graph

Search for Another Location

Airport:

Trip Planner

Search our weather history database for the weather conditions in past years. The results will help you decide how hot, cold, wet, or windy it might be!

Date:

Astronomy

Jan. 18, 2013 Rise Set
Actual Time 8:03 AM MST 5:18 PM MST
Civil Twilight 7:30 AM MST 5:51 PM MST
Nautical Twilight 6:54 AM MST 6:27 PM MST
Astronomical Twilight 6:19 AM MST 7:02 PM MST
Moon 11:20 AM MST 12:34 AM MST
Length of Visible Light 10h 20m
Length of Day
9h 14m
Waxing Crescent, 48% of the Moon is Illuminated
Jan 18
Waxing Crescent
Jan 18
First Quarter
Jan 26
Full
Feb 3
Last Quarter
Feb 10
New

Hourly Weather History & Observations

Time (MST) Temp. Windchill Dew Point Humidity Pressure Visibility Wind Dir Wind Speed Gust Speed Precip Events Conditions
12:53 AM 21.0 °F 4.6 °F 12.0 °F 68% 30.43 in - SW 23.0 mph - N/A   Partly Cloudy
1:53 AM 23.0 °F 8.7 °F 12.0 °F 63% 30.41 in - SSW 18.4 mph - N/A   Clear
2:53 AM 24.1 °F 8.7 °F 10.9 °F 57% 30.39 in - SSW 23.0 mph - N/A   Clear
3:53 AM 25.0 °F 9.2 °F 10.9 °F 55% 30.35 in - SSW 25.3 mph - N/A   Clear
4:53 AM 21.9 °F 9.8 °F 10.0 °F 60% 30.38 in - South 12.7 mph - N/A   Clear
5:53 AM 21.0 °F 8.1 °F 10.0 °F 63% 30.35 in - South 13.8 mph - N/A   Clear
6:53 AM 19.9 °F 6.2 °F 10.0 °F 65% 30.36 in - SW 15.0 mph - N/A   Clear
7:53 AM 21.9 °F 9.2 °F 10.0 °F 60% 30.36 in - SW 13.8 mph - N/A   Clear
8:53 AM 24.1 °F 9.0 °F 10.9 °F 57% 30.36 in - SW 21.9 mph - N/A   Clear
9:53 AM 28.0 °F 15.7 °F 14.0 °F 56% 30.34 in - SSW 17.3 mph - N/A   Clear
10:53 AM 28.9 °F 16.5 °F 12.9 °F 51% 30.32 in - South 18.4 mph - N/A   Clear
11:53 AM 32.0 °F 19.5 °F 17.1 °F 54% 30.27 in - SSW 21.9 mph - N/A   Clear
12:53 PM 36.0 °F 24.4 °F 19.0 °F 50% 30.24 in - SSW 23.0 mph - N/A   Clear
1:53 PM 37.0 °F 25.4 °F 19.0 °F 48% 30.21 in - SW 25.3 mph - N/A   Clear
2:53 PM 36.0 °F 26.0 °F 19.9 °F 52% 30.21 in - SW 17.3 mph - N/A   Clear
3:53 PM 37.0 °F 27.0 °F 19.9 °F 50% 30.21 in - SW 18.4 mph - N/A   Clear
4:53 PM 37.9 °F 27.6 °F 19.0 °F 47% 30.22 in - SSW 20.7 mph - N/A   Clear
5:53 PM 37.0 °F 27.4 °F 16.0 °F 42% 30.22 in - SSW 17.3 mph - N/A   Clear
6:53 PM 34.0 °F 23.0 °F 14.0 °F 44% 30.27 in - SSW 18.4 mph - N/A   Clear
7:53 PM 30.9 °F 18.7 °F 14.0 °F 50% 30.25 in - SW 19.6 mph 26.5 mph N/A   Clear
8:53 PM 28.0 °F 14.9 °F 12.9 °F 53% 30.28 in - SW 19.6 mph - N/A   Clear
9:53 PM 28.0 °F 17.0 °F 12.0 °F 51% 30.29 in - SSW 13.8 mph - N/A   Clear
10:53 PM 26.1 °F 13.1 °F 10.9 °F 53% 30.30 in - SSW 17.3 mph - N/A   Clear
11:53 PM 28.9 °F 16.9 °F 10.0 °F 45% 30.29 in - SSW 17.3 mph 24.2 mph N/A   Clear